TITAN 3C TRANSTAGE DEB, 43454

Orbit data source: Space-Track

TITAN 3C TRANSTAGE DEB, 43454 is space debris in GEO originally from a launch on Sun, 09 Feb 1969 UTC launched from the Air Force Eastern Test Range (AFETR). Debris objects in space refer to the collection of defunct objects orbiting the Earth. Examples of debris include non-operational satellites, rocket bodies, and fragments generated from explosions, collisions, or faulty payload assembly.

Not visible in the next 10 days
Identifier
43454, 1969-013M
Orbit
GEO
Country
Flag of USUS
Related business
Manufacturer
Martin Marietta
Mission
Spacecraft
Bus & Motor
Unknown
Mass
Unknown
Launch date (UTC)
1969-02-09 (57 years ago)
Launch vehicle
Unknown
Launch site
Air Force Eastern Test Range (AFETR)
Object type
Payload
Rocket body
Debris
Shape & HBR
Unknown
Radar Cross Section
RCS unknown

Expand to show TLE details & history
Last TLE update: 2 days ago

TLE from 2 days ago
0 TITAN 3C TRANSTAGE DEB
1 43454U 69013M   25259.73244238 -.00000283  00000-0  00000-0 0  9999
2 43454   0.7279 163.9610 0553147 304.2625 257.8544  1.02845998 27820
Epoch: 2025-09-16T17:34Z
TLE epoch observation values (Epoch: 2025-09-16T17:34:43.021Z)
Latitude
-0.21008°
Longitude
100.40091°
Altitude
35,687.543 km
Speed
3.056 km/s
True Right ascension
23h 59m 59s
True Declination
0° 12' 36"
Sunlit
Object was in full shadow at epoch
Visualization orbit readout
Latitude
Unknown
Longitude
Unknown
Altitude
Unknown
Speed
Unknown
Apparent Right ascension
Unknown
Apparent Declination
Unknown
Sunlit
N/A
Visualization observer readout
Local Sidereal Time
16:46:14
Azimuth
Unknown
Elevation
Unknown
Doppler factor
Unknown
Orbital elements
Apogee altitude
37,374.444 km
Perigee altitude
32,787.829 km
Semi-major axis
41,459.273 km
Eccentricity
0.05531
Inclination
0.7279°
RAAN
163.961°
Arg. of periapsis
304.2625°
True anomaly
251.75809°
Mean anomaly
257.8544°
Eccentric anomaly
254.79603°
Mean motion
0.25711 °/min
Orbital period
1,400.21 mins
BSTAR
0
Loading maneuver chart data...
Computing Atmospheric mass density...

Documentation

Showing up to 5 results
|